Location: Fiennes
(50.8274°N, 1.8253°E)
Time: 23:40:23
(UTC+00:00)

Okean O Rocket - Pass Details

Date: 15 May 2026
Orbit: 614 x 633 km, 98.0° (Epoch: 9 June)

Event Time Altitude Azimuth Distance (km) Brightness Sun altitude
Exits shadow 21:29:48 - 201° (SSW) 2,312 4.2 -13.7°
Reaches altitude 10° 21:30:46 10° 208° (SSW) 1,971 3.9 -13.8°
Maximum altitude 21:34:24 27° 266° (W) 1,201 3.3 -14.1°
Drops below altitude 10° 21:38:05 10° 324° (NW) 1,986 5.6 -14.4°
Sets 21:40:34 0° 337° (NNW) 2,899 6.8 -14.6°
